Theta_e
309 309 310 310 310 309 310 310 309 309 309 310 309 309 310 310 309 309 310 310 312 312 311 310 309 309 309 310 312 312 312 306 303 301 298 301 308 312 314 316 317 317 317 314 310 306 301 298 298 298 296 297 296 294 296 297 295 295 290 287 286 287 288 288 290 289 289 291 292 293 293 293 292 293 298 300 302 315 322 326 330 333 332 333 331 331 331 332
309 309 310 310 309 309 309 309 309 309 309 308 308 309 309 310 310 309 309 310 311 312 312 311 311 310 309 308 310 312 309 304 299 298 298 307 314 317 319 319 324 321 320 310 307 304 299 296 296 295 295 294 297 293 297 293 298 293 286 287 287 289 291 292 290 290 291 291 292 292 293 294 294 295 296 297 294 301 318 323 330 328 330 330 330 330 330 330
310 310 310 310 309 309 309 309 309 309 309 308 308 309 308 308 309 309 309 309 310 311 311 311 311 310 309 308 309 311 306 299 298 294 298 316 319 317 318 318 323 322 313 307 307 305 300 297 296 295 293 293 294 292 295 293 296 292 287 287 289 290 293 291 292 293 292 293 293 293 294 293 294 296 297 297 294 294 313 318 325 327 327 328 328 329 329 329
309 310 310 309 310 310 309 309 309 309 309 309 308 308 309 309 310 310 310 309 310 311 311 311 311 310 310 309 309 307 302 298 288 292 298 318 316 316 318 318 321 319 312 308 303 304 300 299 298 295 293 292 292 294 292 293 292 291 291 288 288 292 292 295 295 294 294 294 294 294 293 294 296 297 297 295 294 292 299 319 324 325 329 328 328 327 328 328
310 310 310 310 310 310 310 309 309 309 308 309 309 308 309 308 309 310 310 310 310 310 310 311 310 310 310 310 309 306 299 284 286 299 312 317 316 315 316 316 321 312 311 306 302 300 300 297 296 296 293 288 291 292 291 294 295 292 292 292 290 292 293 295 294 294 295 296 294 292 293 295 297 297 296 295 293 292 295 300 324 330 332 329 328 328 328 327
310 309 309 310 309 310 309 310 309 309 309 308 308 309 309 309 309 309 309 310 310 309 310 309 310 309 309 310 305 303 295 277 296 296 315 315 314 314 315 314 317 312 312 309 301 298 298 297 295 292 292 289 290 290 289 295 296 290 292 293 293 293 293 293 295 296 295 296 295 294 295 295 294 294 295 295 295 295 295 305 325 333 333 332 331 330 328 326
309 310 310 310 309 309 309 309 309 309 308 309 309 309 309 309 309 308 308 308 309 309 308 309 309 310 309 308 302 300 293 293 298 301 313 314 313 313 314 310 311 306 306 302 301 298 295 294 294 290 291 290 291 290 291 293 295 292 290 291 294 295 295 296 297 296 293 293 293 294 294 294 293 293 294 295 296 297 297 300 311 332 334 333 330 329 328 327
309 309 309 309 309 309 309 309 309 308 308 308 309 309 308 308 308 309 309 308 308 308 308 308 309 309 308 303 294 291 292 291 299 304 310 312 306 306 308 302 302 301 301 301 299 297 295 293 293 292 290 289 288 291 293 291 292 292 291 292 292 292 295 297 295 293 293 292 293 293 293 294 293 294 295 296 298 299 299 322 330 334 333 332 330 329 328 327
309 309 309 309 309 309 309 309 309 309 308 309 309 309 309 308 308 308 308 308 308 308 308 308 308 308 308 302 294 288 287 297 302 304 304 302 301 301 301 299 301 299 298 298 300 298 296 292 293 294 288 290 292 291 292 290 289 292 291 293 293 294 293 292 291 290 291 293 293 293 292 292 294 294 293 297 299 300 322 330 332 332 332 331 330 330 329 328
309 309 309 309 309 309 308 308 308 308 308 308 309 309 309 308 308 309 308 308 308 308 308 308 308 307 303 298 294 284 292 301 303 302 301 300 300 299 299 299 300 299 297 297 298 297 295 293 296 296 294 292 293 291 291 292 289 293 292 294 292 293 293 294 292 293 291 292 292 292 291 292 293 293 290 294 296 327 330 331 331 331 331 332 331 332 331 329
309 309 308 308 309 308 308 308 308 308 308 308 308 308 309 308 308 308 308 308 307 308 308 307 307 305 299 299 289 284 299 298 301 300 300 299 298 296 297 298 299 298 298 297 296 297 298 297 296 296 295 291 292 291 292 291 294 293 291 291 291 292 293 294 292 291 292 292 291 292 293 293 294 292 291 296 305 328 328 331 332 332 331 332 332 332 332 332
309 308 309 308 308 308 308 308 308 308 309 308 308 308 308 308 308 308 308 308 308 308 308 307 307 303 299 295 290 290 300 299 301 300 300 299 297 298 299 299 299 298 298 295 297 298 299 297 297 295 288 294 289 292 291 294 294 293 293 289 289 290 290 291 292 293 291 292 291 291 291 291 290 289 292 297 314 326 328 330 331 331 331 332 333 333 332 332
308 308 308 308 308 308 308 308 308 308 308 308 308 307 307 307 307 308 308 308 308 308 308 308 306 302 298 287 293 301 303 303 301 300 300 300 299 299 299 298 298 299 299 297 297 299 299 297 296 293 295 294 290 287 293 296 292 293 292 290 289 289 288 291 291 292 291 292 291 293 286 290 290 291 293 296 320 324 328 329 330 331 332 332 333 333 333 334
308 308 308 308 308 308 308 308 308 308 308 307 307 307 307 307 308 309 309 308 309 308 308 308 304 299 295 289 297 300 301 301 301 299 298 300 296 296 298 298 299 299 300 299 299 300 299 299 297 295 296 292 290 296 293 291 292 290 289 288 284 284 282 287 291 289 290 291 292 294 286 289 287 288 291 294 319 325 325 328 329 330 331 332 333 333 333 334
308 308 308 308 308 308 308 308 308 308 308 307 307 307 307 307 308 309 309 309 308 308 308 307 301 296 290 290 299 301 307 304 297 297 299 297 295 294 296 298 297 298 299 299 298 299 300 298 295 291 288 295 295 291 286 287 286 286 286 284 283 285 280 284 290 291 291 291 293 292 287 288 290 290 293 294 320 321 321 327 329 330 331 332 333 333 334 335
308 308 308 308 308 308 308 308 307 307 307 307 307 307 307 307 307 308 309 308 308 307 305 299 298 296 290 285 292 304 297 291 291 296 299 299 296 294 297 296 298 298 298 298 300 300 299 297 291 290 291 292 290 285 283 282 285 286 285 280 283 282 282 285 290 290 293 292 290 293 283 281 288 291 295 301 320 321 319 325 328 329 331 332 333 333 334 332
308 308 308 308 307 307 307 307 307 307 307 307 307 306 306 306 307 307 306 306 305 305 300 294 298 298 282 294 300 291 290 293 295 295 296 299 299 297 297 296 294 295 297 298 298 297 295 293 293 293 291 286 286 286 282 281 280 283 282 279 280 283 281 284 285 288 290 293 289 290 290 285 289 289 291 295 316 319 318 322 327 329 331 333 333 334 330 329
307 307 308 307 307 307 307 307 307 307 306 306 305 305 303 305 307 304 302 303 302 301 301 302 298 292 287 295 287 289 295 294 295 296 297 297 299 298 296 294 295 294 294 293 296 292 293 289 290 284 286 287 286 285 282 279 281 280 279 281 281 282 284 285 285 287 288 289 290 288 287 288 290 293 292 291 297 317 318 320 326 327 329 331 333 333 328 329
307 307 307 307 307 307 307 307 307 307 306 305 305 304 304 304 297 296 297 297 290 285 283 286 289 279 277 287 292 292 292 294 296 295 294 296 297 297 297 297 296 292 288 289 288 291 290 288 289 283 283 284 285 286 284 283 285 283 283 283 280 282 281 284 288 288 290 287 287 286 285 287 289 290 291 292 292 308 313 315 322 327 329 330 332 333 328 328
307 307 307 307 307 306 306 306 306 306 306 302 299 297 292 288 287 285 292 292 288 288 288 289 293 291 290 291 290 295 297 297 291 293 295 297 298 295 294 294 292 292 288 285 287 289 290 284 282 282 284 286 286 287 287 286 287 286 283 284 284 282 282 282 284 287 288 288 286 286 286 287 289 290 292 293 291 294 303 314 321 325 327 329 331 331 327 327
307 307 307 306 306 306 306 306 306 306 305 301 296 289 282 284 282 281 288 289 292 292 290 290 291 290 289 292 294 293 289 290 293 292 294 302 296 294 289 292 288 284 286 288 286 290 290 283 283 285 285 286 287 287 287 287 286 285 283 283 283 282 282 285 287 289 289 288 285 286 286 287 289 290 291 292 292 291 293 304 318 322 326 328 328 328 327 327
307 307 307 306 306 306 306 306 305 305 305 296 294 288 289 289 293 296 293 284 290 292 291 291 292 290 294 293 295 295 292 287 289 291 295 296 292 287 288 288 286 283 286 287 287 284 284 282 285 285 286 287 287 288 288 288 286 284 283 281 281 281 282 285 286 287 289 288 284 284 285 286 288 290 290 290 291 291 293 300 315 322 324 326 327 326 327 325
306 306 306 306 306 306 305 306 305 305 298 291 289 289 289 294 300 300 297 290 286 292 290 289 287 288 289 293 294 294 287 285 284 289 291 294 290 288 289 286 285 284 286 287 284 282 280 284 286 288 287 287 286 287 287 287 287 285 281 281 280 281 283 282 286 286 288 288 286 284 285 285 286 287 288 290 291 291 291 294 306 321 324 325 326 327 325 323
306 307 306 306 306 305 306 305 305 297 291 292 292 292 297 298 298 300 293 283 282 286 288 290 289 288 288 287 292 291 287 287 287 286 295 293 287 291 289 287 285 284 283 286 286 283 282 284 289 289 288 287 286 286 287 286 285 286 284 279 280 281 283 282 283 285 285 288 288 285 285 284 283 287 288 289 291 291 297 294 299 315 323 326 327 327 326 324
306 306 306 306 306 307 305 305 296 295 296 295 294 297 299 300 301 300 289 283 282 282 289 289 291 290 291 297 295 288 288 288 289 292 294 294 290 290 287 291 287 282 284 286 285 284 284 287 289 288 287 287 286 285 286 287 283 284 285 285 283 282 284 284 284 283 282 283 283 286 279 279 280 283 286 288 289 290 293 295 298 312 320 324 324 324 324 324
305 305 305 306 306 306 306 298 295 298 296 292 294 297 298 299 300 298 288 278 274 280 287 281 292 286 299 291 293 290 290 283 291 292 295 294 298 292 291 286 288 282 284 285 285 285 285 288 287 287 287 287 286 286 287 288 284 283 284 288 286 286 284 283 283 283 279 278 285 287 281 274 278 282 285 287 287 289 290 298 298 311 320 322 323 323 323 323
304 304 305 306 306 306 298 293 300 299 291 292 296 297 298 299 300 291 280 273 269 282 279 290 289 290 296 293 292 292 276 278 291 293 292 297 291 295 287 285 286 287 287 288 284 281 287 287 285 286 287 286 285 284 287 289 285 282 286 289 287 286 285 284 283 281 277 282 284 284 282 277 277 282 284 287 288 286 291 298 301 310 318 321 321 322 323 324
304 305 305 305 305 305 299 300 297 293 293 296 298 298 299 298 296 290 277 265 266 287 281 286 291 300 293 295 295 287 285 288 281 286 293 295 294 291 288 285 284 283 287 286 277 284 287 285 284 283 285 285 284 286 288 290 286 284 287 290 287 287 285 284 282 282 282 281 279 278 283 280 275 279 283 288 288 290 293 297 302 308 315 319 320 321 322 324
304 305 305 305 305 306 301 298 296 293 297 297 298 299 299 296 290 280 269 263 280 282 298 283 301 296 294 295 291 291 288 290 281 288 293 294 295 291 284 286 285 284 287 287 281 282 287 288 287 286 285 284 286 288 290 291 287 288 289 291 290 288 287 284 281 284 281 280 276 280 281 278 275 277 280 284 287 286 292 297 302 307 313 316 318 320 322 324
304 304 304 304 304 302 298 296 294 298 298 299 299 298 298 289 280 272 266 264 284 274 286 289 287 285 290 285 287 290 285 286 288 288 291 289 291 293 291 293 287 283 283 286 284 283 287 293 293 287 285 287 288 289 290 291 290 289 289 288 286 285 284 285 281 282 280 273 279 280 281 280 276 278 284 285 288 291 292 297 302 306 311 315 317 319 321 323
303 304 304 304 297 300 299 294 297 299 299 299 299 295 290 282 273 265 263 274 281 280 289 287 284 291 286 284 283 286 285 286 286 287 285 291 288 290 289 286 287 281 280 281 281 285 286 286 288 288 292 290 291 288 291 293 291 288 286 284 283 282 281 280 280 279 273 273 275 279 281 282 276 275 279 285 287 294 295 297 302 307 310 314 317 319 320 322
303 303 304 301 300 302 295 293 297 300 299 300 297 287 281 272 275 267 269 287 274 279 280 281 287 287 285 287 285 285 281 283 286 285 283 285 284 284 284 278 281 275 275 275 276 282 281 282 286 288 295 290 288 287 286 291 289 289 285 285 281 275 277 272 276 273 274 273 280 278 282 279 278 281 286 289 289 290 296 300 301 306 310 313 315 318 320 322
302 302 304 302 302 297 299 300 300 299 298 298 290 284 276 271 267 274 274 279 274 282 281 288 285 285 285 284 281 284 287 282 285 285 287 286 284 283 285 283 281 278 272 277 276 276 278 282 285 285 288 292 290 284 281 284 286 286 285 282 279 274 272 270 273 270 273 276 278 278 282 278 279 282 287 289 291 293 293 300 303 306 309 312 315 317 319 321
302 302 298 299 299 299 299 302 299 298 296 294 283 279 276 269 270 283 278 279 279 287 287 285 285 286 285 281 282 286 282 287 285 284 286 283 284 281 283 284 283 282 277 278 275 275 271 274 280 284 281 290 289 288 287 285 286 286 286 284 281 279 273 267 272 271 272 274 278 280 280 275 278 284 287 290 291 291 292 299 304 308 310 311 311 315 319 320
302 300 296 296 295 297 300 300 297 300 292 286 282 278 271 271 277 275 277 280 283 285 283 287 283 283 282 283 284 285 287 281 287 285 283 283 280 282 281 281 284 284 282 276 278 275 277 277 280 287 286 290 287 289 290 287 287 288 285 284 279 281 276 274 274 275 275 276 275 279 277 279 282 285 290 294 294 299 303 307 309 310 311 312 313 316 318 320
299 296 296 293 297 298 298 300 296 295 290 286 280 274 272 277 274 280 279 287 285 281 282 285 285 281 280 279 281 281 289 284 285 285 282 283 282 282 284 284 282 284 280 274 277 275 278 276 283 287 287 288 289 290 289 291 280 285 285 282 284 284 280 274 273 277 273 273 274 272 279 281 283 288 288 295 297 303 306 307 309 309 311 312 313 314 317 319
295 296 291 293 296 298 299 299 300 294 292 285 278 273 279 280 283 282 285 283 284 285 283 277 279 279 278 278 279 281 281 285 282 284 278 283 279 282 283 284 285 284 285 281 279 279 276 274 281 285 284 287 292 292 290 292 288 285 282 283 287 287 284 279 274 270 267 270 270 276 278 278 278 279 287 294 293 301 305 306 307 308 310 312 312 313 315 318
294 294 296 296 297 300 300 298 295 292 289 284 277 281 284 280 286 284 287 286 286 286 282 280 280 284 279 280 279 279 284 277 281 282 278 281 276 285 284 283 285 286 286 286 281 280 281 276 280 286 287 289 290 292 288 291 291 289 286 289 286 276 278 277 274 269 269 269 269 278 277 276 277 281 284 289 293 295 305 307 307 309 311 312 312 313 314 317
294 291 286 293 299 300 299 299 297 293 287 281 279 279 284 284 288 287 288 288 288 285 281 283 279 283 283 280 281 283 282 280 284 280 277 280 277 282 284 285 284 286 286 286 282 281 284 276 277 285 287 288 288 289 281 285 289 290 291 289 289 282 277 277 277 275 276 267 268 274 275 276 281 280 286 290 293 295 305 306 308 310 311 311 312 313 314 316
292 287 283 294 297 299 301 300 295 290 284 278 280 281 287 283 287 290 291 290 286 285 283 282 285 281 283 283 284 281 283 283 282 280 281 280 279 284 283 288 284 285 286 287 284 286 280 284 276 282 288 288 282 286 284 285 283 283 286 284 285 287 285 283 281 278 278 268 265 268 272 275 281 284 288 292 294 300 306 307 308 309 310 311 312 313 314 316
294 287 283 293 299 299 300 297 288 284 282 284 285 283 286 284 288 290 291 293 290 292 286 285 284 281 282 282 283 286 283 283 283 281 283 281 280 274 283 286 287 284 286 285 285 285 281 279 278 282 282 282 284 287 287 287 288 284 283 280 284 282 280 279 275 278 277 277 270 269 273 275 283 288 289 290 293 301 306 307 308 310 311 311 312 313 315 317
289 279 283 295 298 298 293 285 285 287 284 282 282 286 284 293 289 289 291 292 292 289 292 287 287 285 283 282 283 284 285 283 283 282 283 280 284 281 282 286 288 286 285 280 282 286 285 283 281 277 279 281 283 288 290 291 290 287 288 284 286 282 280 278 271 276 278 279 278 276 270 278 286 290 291 295 296 297 303 305 305 306 309 309 309 311 314 317
288 284 293 295 298 297 290 284 287 285 284 286 290 289 291 289 288 290 289 291 289 292 290 286 286 285 285 283 285 285 287 284 285 282 283 286 285 286 284 286 287 286 288 284 286 287 294 283 280 279 281 285 286 288 290 291 290 286 288 286 286 285 283 280 275 278 280 279 278 277 274 273 283 291 294 298 301 300 299 305 307 305 306 309 310 312 314 316
288 288 289 294 297 297 286 279 280 282 284 287 287 286 289 288 289 288 289 290 289 289 288 288 289 288 285 287 286 284 289 280 285 284 283 286 286 292 287 285 288 286 287 285 284 291 282 282 281 276 277 280 282 285 286 288 289 285 285 286 286 286 286 283 281 280 278 277 278 275 273 273 284 293 298 300 300 300 301 302 305 303 304 309 310 312 315 317
288 291 290 293 295 291 282 286 284 282 283 283 284 283 286 288 292 291 290 289 292 291 290 288 290 287 286 289 287 289 289 286 282 287 287 288 288 294 292 288 289 286 290 294 295 292 284 281 280 273 271 273 274 275 277 280 283 283 286 286 285 286 286 283 280 278 276 279 279 275 270 278 284 291 300 300 299 299 299 301 302 304 306 309 310 312 315 317
284 279 286 286 287 286 288 293 288 285 283 283 281 284 287 286 289 291 292 291 292 292 292 290 291 290 286 287 286 285 284 289 285 283 286 284 289 291 291 291 291 289 293 298 299 291 285 287 284 280 276 275 277 280 282 284 282 281 282 285 284 285 286 285 279 277 277 276 277 277 280 280 285 289 296 298 297 298 298 300 302 303 305 308 310 312 315 316
286 281 282 281 286 288 286 287 287 287 282 285 280 285 284 286 287 288 295 288 294 292 292 290 290 288 287 287 285 285 287 287 289 287 286 287 289 290 293 294 295 294 297 296 298 290 286 282 284 286 284 284 284 284 286 287 283 282 282 283 283 285 284 284 280 277 281 280 276 279 280 285 286 288 293 296 298 298 298 301 301 303 305 309 311 313 313 317
281 285 287 289 282 280 281 282 286 284 286 287 283 287 285 284 285 283 289 292 293 294 289 290 291 291 290 288 288 284 285 285 285 281 283 288 288 290 288 292 291 295 297 293 296 289 286 281 285 286 286 287 289 289 287 286 285 284 285 283 283 283 283 283 282 280 283 280 276 281 283 287 289 291 296 297 299 301 300 302 302 305 307 310 312 313 315 317
289 288 287 291 282 285 284 285 286 286 284 286 285 287 284 284 283 286 285 286 288 289 292 284 288 291 291 291 288 285 286 282 282 283 287 289 289 288 286 289 292 295 293 291 292 291 289 281 285 288 286 288 289 289 288 286 286 287 285 285 285 284 284 285 282 281 285 283 282 282 286 289 291 293 294 299 300 300 305 308 308 309 309 311 313 314 315 317
283 283 282 288 286 284 285 285 285 285 282 286 283 285 285 284 283 285 287 285 283 285 293 288 289 290 291 291 290 286 288 287 287 283 288 289 288 289 286 288 288 292 294 289 291 292 288 281 290 287 283 285 289 289 289 289 289 287 289 288 286 284 284 284 283 284 286 285 284 285 287 287 291 291 295 304 306 308 309 308 308 309 311 312 313 314 315 317
289 291 290 283 281 284 286 284 283 282 282 285 283 284 284 285 283 286 285 289 286 285 289 287 289 290 291 291 291 289 291 290 290 288 290 290 286 292 288 286 292 287 291 289 290 290 290 284 287 284 280 282 287 289 289 290 290 288 287 288 289 284 284 284 283 285 284 284 285 287 287 286 290 299 304 304 307 307 306 306 307 309 312 313 313 314 315 317
292 293 292 288 281 286 283 285 284 283 281 285 285 284 283 284 286 287 283 291 292 292 291 290 290 290 289 290 289 289 291 293 293 293 293 294 295 295 296 295 294 290 288 288 289 287 287 285 284 281 282 281 287 287 286 288 288 284 283 287 288 287 285 287 287 290 290 287 285 281 287 289 290 295 299 301 304 306 306 307 308 310 312 314 314 315 316 318
Wind_Speed
17 17 17 18 18 18 18 19 19 19 19 20 20 20 20 20 20 19 20 21 20 20 19 17 18 19 20 21 21 21 19 10 12 10 10 17 12 16 20 21 24 19 10 1 1 0 5 3 2 0 4 4 2 2 3 2 2 3 5 4 8 4 9 5 8 8 2 1 0 1 0 2 3 3 2 1 2 2 1 3 3 4 6 2 3 10 16 17
17 17 17 17 18 18 18 18 18 19 19 20 21 21 21 21 20 20 20 20 21 20 19 18 16 17 18 20 21 20 14 9 14 13 16 18 19 19 18 16 17 19 7 3 4 3 2 2 3 5 4 3 1 3 4 2 3 7 2 6 16 7 4 9 3 6 1 4 1 2 1 1 3 1 2 5 6 4 2 1 3 3 6 8 9 12 14 16
17 18 18 18 18 18 18 18 18 18 18 19 20 20 20 20 21 20 20 19 19 21 20 19 17 17 16 17 20 19 12 13 10 14 11 4 9 7 12 18 10 13 11 4 4 5 7 2 4 5 3 4 2 5 4 4 6 5 5 11 10 3 4 4 4 5 6 1 2 4 5 2 3 1 1 1 6 4 4 3 1 1 3 7 8 10 11 12
18 18 18 18 19 19 19 18 19 19 19 19 19 19 19 20 20 21 20 20 19 19 20 19 18 17 15 16 17 12 7 10 7 4 4 9 11 15 17 19 9 7 5 4 2 3 2 0 0 5 2 4 3 2 6 6 6 2 6 8 5 5 4 6 5 6 4 1 1 3 4 7 5 1 1 3 5 6 5 5 6 8 9 11 11 10 11 12
18 17 18 18 18 19 20 20 19 19 19 19 19 19 20 19 20 21 21 20 19 19 19 19 18 16 15 15 15 6 8 5 4 2 2 20 16 17 18 20 9 2 6 1 2 3 1 0 1 1 3 5 3 3 4 4 3 3 11 2 2 4 7 5 6 5 3 1 1 1 4 7 3 1 1 2 2 8 3 3 4 4 11 14 16 13 11 12
17 18 17 17 17 18 18 18 19 19 20 20 20 20 20 20 19 19 20 20 19 19 19 18 18 16 14 14 7 3 2 4 1 3 12 20 16 18 18 17 17 5 4 1 1 1 4 0 2 3 2 3 8 10 2 8 4 10 1 5 3 3 5 2 4 5 5 4 5 4 5 2 2 4 2 3 6 7 4 1 3 9 12 11 12 15 14 15
17 17 17 17 17 17 17 17 18 19 19 20 20 20 20 19 19 19 19 19 20 19 19 17 17 17 14 11 4 1 6 11 5 8 20 15 17 17 18 12 15 8 1 1 1 1 3 3 4 2 3 3 4 7 3 5 5 5 7 2 8 5 7 5 2 3 2 5 4 4 3 3 3 9 1 1 6 7 5 5 6 7 10 13 14 14 17 18
17 18 18 18 18 18 18 18 18 19 19 20 21 22 21 21 20 20 19 20 19 19 18 17 15 16 14 4 6 2 6 13 3 4 10 14 13 14 14 4 12 9 7 3 0 1 1 4 6 2 3 8 3 7 4 4 6 11 8 2 2 3 6 8 6 5 4 5 6 4 5 6 4 5 4 9 9 8 6 4 4 9 11 11 11 13 11 10
18 18 18 18 18 18 18 18 18 19 20 20 20 19 21 21 21 20 21 20 19 18 18 17 16 14 10 2 2 7 11 10 11 8 6 7 9 11 9 8 10 9 4 5 2 3 2 3 4 5 4 5 4 3 4 7 10 5 6 2 4 4 3 4 3 4 4 3 3 3 7 6 8 5 6 12 12 6 0 4 6 9 11 12 12 12 13 12
18 18 18 18 18 18 18 18 19 19 19 19 19 20 20 21 20 21 21 21 20 19 17 16 15 14 6 1 2 4 8 1 3 5 7 10 12 13 9 5 9 9 7 7 7 1 4 3 7 4 1 3 2 5 2 11 5 4 8 10 6 6 5 4 6 5 4 3 1 4 6 6 4 5 8 1 1 2 5 5 6 9 12 11 11 9 7 7
19 19 19 19 19 18 19 19 19 20 19 19 19 19 21 21 22 21 20 21 22 20 18 15 14 10 8 4 5 11 4 5 2 8 12 15 15 11 9 9 6 5 4 5 4 2 3 5 2 2 1 4 2 3 4 3 1 1 4 1 6 8 9 7 6 6 1 4 6 6 10 9 6 3 7 9 2 4 6 7 8 8 10 11 11 9 8 7
19 19 19 19 19 19 19 20 20 20 21 20 21 22 22 21 21 21 22 21 22 20 17 13 13 5 4 8 10 14 2 3 12 10 13 13 10 8 9 8 6 4 2 5 7 5 4 3 2 2 4 2 7 1 4 7 3 1 1 4 2 3 6 7 12 8 4 5 2 6 3 10 4 4 4 10 2 4 7 9 11 9 9 9 10 9 9 9
19 19 19 19 19 19 20 21 21 22 23 23 22 22 22 22 21 23 22 22 21 19 18 14 8 2 5 13 14 19 14 13 19 18 13 6 9 8 9 9 7 6 7 7 4 3 1 1 2 2 5 2 2 5 1 1 3 3 3 3 4 4 8 8 3 5 6 4 7 5 8 11 6 6 7 8 4 4 6 9 10 9 9 9 10 10 9 9
20 20 20 20 19 20 21 21 21 22 22 23 23 23 22 22 23 24 23 21 22 20 18 15 5 2 6 10 6 4 1 6 11 14 17 7 6 10 7 8 7 7 6 8 9 7 7 3 3 4 3 4 3 5 4 3 1 9 2 3 7 3 6 3 7 5 7 5 8 7 10 11 3 4 8 5 4 10 9 10 11 10 9 8 9 10 10 9
20 21 20 20 20 21 21 22 21 21 22 22 23 23 23 24 24 24 22 20 17 15 13 8 2 1 7 9 9 13 19 12 11 15 11 8 6 8 7 1 4 7 7 8 3 3 5 2 2 1 3 3 5 4 5 0 2 2 6 11 3 10 3 3 4 11 10 3 10 7 11 11 8 5 7 3 4 5 7 10 12 11 10 10 9 10 9 9
21 21 21 21 22 22 22 22 22 21 22 22 23 24 23 23 24 22 20 15 15 8 1 2 3 5 6 11 4 5 3 4 8 9 10 7 5 7 9 3 2 3 3 5 7 5 3 2 2 4 2 1 6 4 1 1 3 3 11 1 10 5 4 2 4 7 12 5 3 15 6 2 5 10 12 7 9 8 7 9 11 12 11 10 9 9 9 8
23 22 22 22 22 22 22 22 22 23 22 22 23 22 23 23 22 19 12 5 2 4 5 2 2 5 5 3 5 8 4 5 5 2 2 7 7 7 2 1 2 3 6 5 3 3 2 3 2 1 3 3 3 5 3 7 5 8 1 5 2 9 3 7 3 3 8 11 6 6 9 4 5 5 3 2 8 9 7 8 10 11 10 10 9 10 9 10
23 23 22 23 22 22 22 22 22 23 23 22 21 20 19 23 20 6 4 5 4 3 3 1 1 3 10 6 8 9 1 4 3 3 6 4 8 6 5 3 2 3 1 2 2 3 2 3 2 5 3 7 8 9 13 15 14 6 4 5 1 1 9 7 6 4 7 8 11 6 7 7 7 8 7 4 5 9 10 10 12 13 12 11 10 11 11 11
22 22 23 22 22 22 23 23 24 24 23 21 17 19 21 13 2 2 2 0 1 2 2 3 4 5 7 4 9 6 3 4 5 3 7 1 2 3 2 3 1 2 3 6 3 9 1 2 2 3 12 13 14 16 12 0 8 7 7 6 3 8 6 10 7 3 11 5 8 6 7 7 10 9 8 4 5 9 8 2 5 9 11 12 11 11 11 12
23 22 23 24 23 24 25 24 26 25 23 13 8 7 4 5 5 1 1 1 3 5 9 9 9 10 15 17 15 9 3 4 5 5 6 5 5 2 1 3 2 2 4 10 5 8 4 7 11 16 13 9 5 7 8 1 1 11 5 5 7 3 1 3 2 4 3 3 7 6 5 7 11 10 9 9 2 3 5 7 8 9 12 12 11 10 11 12
23 23 23 24 24 24 24 25 25 23 21 9 5 3 2 3 6 7 6 11 14 12 13 14 15 16 15 10 9 8 9 7 7 7 5 1 2 1 2 5 2 5 7 5 7 2 7 9 15 9 3 7 9 4 5 4 3 5 7 8 7 5 5 3 3 1 0 5 1 4 7 9 10 9 9 4 2 4 7 8 10 11 11 10 10 12 12 10
23 24 24 24 23 24 24 25 24 22 20 2 1 0 2 3 4 3 4 9 6 12 12 18 13 15 13 15 16 10 6 11 13 11 7 2 2 2 2 6 4 9 6 6 6 5 11 17 9 4 4 6 7 7 5 9 3 1 4 5 5 6 1 6 3 2 1 3 6 2 6 8 11 10 7 3 5 3 8 13 12 14 13 10 9 10 11 8
24 25 26 25 23 24 25 24 23 21 3 1 0 3 3 3 0 2 2 8 16 7 15 13 11 13 14 10 11 4 8 11 16 7 6 8 8 10 4 6 6 3 7 11 14 10 10 12 5 9 4 5 4 8 6 6 5 4 2 4 6 3 7 8 6 3 1 3 1 2 5 6 6 4 6 6 5 5 6 9 7 10 13 12 14 15 14 12
25 26 26 26 26 25 26 23 21 4 1 0 3 6 8 4 2 4 5 4 10 7 6 8 8 5 9 7 2 7 9 5 4 12 8 7 9 8 7 8 6 5 11 13 14 11 8 1 11 9 8 7 6 9 11 9 11 5 4 3 4 2 3 4 4 2 2 1 1 2 3 6 3 4 2 3 4 4 1 4 5 5 8 13 13 12 14 18
26 27 26 26 26 25 24 23 3 0 1 5 5 3 2 1 3 1 2 5 3 8 0 4 4 5 5 2 2 4 4 2 9 3 2 9 9 6 5 4 5 8 8 10 6 8 9 5 5 13 10 10 7 8 13 11 8 6 5 5 3 4 4 1 2 1 1 6 1 3 1 4 4 5 6 3 0 3 3 6 7 8 8 8 10 13 12 11
27 28 28 26 27 24 22 9 2 1 6 4 5 4 2 4 3 2 1 3 8 2 1 3 3 2 2 1 1 3 4 5 10 11 6 7 5 6 4 4 4 9 8 9 9 4 5 2 4 11 12 11 10 8 7 10 8 7 7 9 4 3 1 2 3 2 0 4 1 0 8 5 5 3 4 4 5 8 2 3 5 7 10 11 13 14 14 15
27 27 27 27 25 22 8 3 1 4 5 3 1 2 5 4 3 1 2 3 4 0 3 1 2 2 3 2 2 1 4 3 0 3 8 7 6 2 5 6 3 1 4 3 1 8 6 9 3 4 12 13 11 10 9 13 8 7 4 13 7 3 4 1 2 3 2 2 4 0 3 2 5 7 5 1 1 3 4 5 4 6 10 14 14 15 15 15
28 29 27 28 25 18 6 5 6 4 4 4 4 3 4 3 1 2 1 4 3 1 2 1 3 2 3 3 7 8 6 4 3 2 11 7 2 1 3 6 6 7 8 8 15 2 12 7 6 5 7 10 12 6 5 8 7 3 5 12 10 6 4 2 2 1 0 3 7 4 0 1 4 5 4 2 2 3 5 6 8 10 13 16 16 16 16 17
28 29 29 28 25 16 2 1 2 4 3 2 3 4 4 3 1 2 3 1 0 1 4 1 3 3 6 7 9 12 10 5 2 0 4 4 6 3 2 2 4 5 6 10 9 1 2 10 10 7 5 9 3 6 9 11 8 3 9 10 7 5 2 4 2 1 3 1 8 4 1 3 6 5 4 2 1 4 6 9 12 13 16 15 14 13 14 13
30 29 30 27 16 1 1 0 4 4 3 3 4 3 2 2 2 1 2 3 2 5 2 2 2 3 2 5 6 4 6 2 4 1 6 3 8 1 1 4 3 3 5 5 4 5 1 4 11 6 7 3 5 5 7 9 4 3 5 8 4 3 3 2 1 1 1 5 10 3 4 2 4 6 8 4 5 7 7 4 4 3 6 9 10 12 13 13
31 31 28 23 4 1 1 3 5 3 3 1 2 2 1 2 1 2 2 4 1 4 2 3 4 4 9 7 3 2 2 2 2 5 4 3 3 2 2 3 2 3 2 3 5 7 4 1 6 3 7 4 5 5 7 11 7 9 3 5 8 2 3 2 0 2 3 8 2 6 6 5 5 4 5 7 5 4 7 8 9 10 13 15 14 12 13 13
31 30 28 13 3 2 2 4 2 0 1 1 1 2 2 2 2 2 4 2 5 2 4 9 13 3 11 11 1 1 2 1 2 5 7 7 7 7 4 5 5 4 4 6 5 3 6 3 2 3 9 10 7 7 4 9 8 7 5 7 10 3 3 3 1 5 9 4 1 2 7 1 7 8 9 7 10 9 8 9 11 13 14 13 11 12 10 10
29 28 26 6 2 1 4 4 1 2 1 1 2 2 2 1 4 4 4 2 3 1 5 1 11 14 12 6 2 2 3 1 2 1 8 6 9 3 0 3 4 3 4 3 4 4 4 1 4 4 7 8 9 10 6 9 10 9 10 9 9 6 6 8 7 1 2 3 3 3 1 4 3 8 10 13 15 13 10 11 8 10 13 13 13 10 8 9
27 24 9 4 3 5 4 3 2 1 1 1 3 2 1 0 5 2 5 3 7 3 8 5 15 15 4 3 3 2 1 2 4 3 4 6 8 7 3 3 2 1 4 5 5 6 6 4 7 6 4 9 10 9 11 7 11 10 1 7 7 5 4 5 4 9 6 4 2 2 3 5 4 7 4 11 8 6 5 7 6 6 7 6 4 4 5 7
26 14 4 6 1 2 4 2 2 2 3 2 1 1 0 4 2 4 5 2 3 7 8 11 11 5 3 3 4 2 2 1 3 6 6 9 6 4 5 4 3 1 0 7 3 2 4 1 5 9 3 10 11 6 5 8 8 7 4 5 5 9 6 5 6 6 3 3 1 1 5 5 6 3 5 2 4 2 2 4 5 5 4 5 6 10 12 12
14 8 3 3 1 1 0 1 1 2 3 4 1 0 3 3 3 1 3 2 5 6 13 14 3 2 2 2 1 3 2 2 6 3 4 7 4 5 2 2 3 7 4 5 3 4 1 2 0 10 4 10 11 8 6 9 9 7 7 11 7 5 6 4 2 1 3 4 6 1 3 5 8 7 3 5 3 3 1 2 4 5 5 6 9 9 10 10
8 8 4 4 3 1 1 1 1 2 4 2 0 3 4 5 6 4 3 4 9 9 7 7 4 4 7 6 3 6 4 4 1 1 3 4 3 3 4 2 3 4 9 3 2 2 9 5 1 9 11 6 7 13 5 9 5 6 8 5 3 2 5 3 2 2 2 5 5 2 6 3 2 4 5 2 1 1 0 2 3 4 5 9 10 9 10 10
8 6 5 4 2 0 1 1 2 2 3 0 3 8 3 4 3 7 6 10 9 4 4 2 1 3 4 5 3 4 7 2 2 1 2 4 1 4 5 1 4 8 7 3 1 2 3 3 2 9 9 7 2 10 5 8 8 12 7 4 8 3 5 2 3 0 1 2 2 0 1 3 5 6 2 4 4 4 4 3 4 7 9 11 9 7 6 8
4 1 2 1 1 0 1 2 1 2 1 2 3 6 2 5 5 7 8 8 8 6 2 1 1 1 2 5 4 3 2 1 3 1 5 4 2 5 8 5 4 5 4 7 1 2 1 2 2 4 12 6 5 9 11 11 3 4 9 10 6 5 2 4 6 3 6 2 2 2 2 5 5 6 8 8 8 6 6 5 10 11 12 9 7 7 9 11
5 2 1 2 2 1 2 2 1 1 1 2 4 4 2 8 8 8 7 7 4 0 1 2 1 3 3 2 3 4 2 2 1 2 0 2 2 0 6 8 4 3 7 7 4 0 2 0 2 2 8 9 7 8 12 11 10 8 10 8 4 1 1 5 1 2 2 4 3 2 1 5 8 7 6 8 7 9 10 11 9 8 8 7 6 7 7 7
4 1 3 2 3 1 1 0 1 1 3 5 6 6 9 3 8 10 8 8 5 4 5 3 3 1 2 5 4 3 4 3 1 1 0 2 3 1 5 7 7 2 3 3 3 2 0 2 0 0 7 12 5 3 4 7 9 4 5 4 7 7 3 8 5 2 2 2 2 4 5 6 10 2 7 5 3 5 9 8 10 10 10 10 8 5 6 8
4 3 1 2 3 1 1 2 2 2 2 5 5 5 8 11 7 10 8 3 5 4 5 3 4 5 2 2 3 3 3 4 2 1 2 2 2 1 3 8 9 5 6 4 3 4 3 1 2 2 3 5 4 9 7 11 9 5 6 3 7 4 5 4 4 3 2 0 4 4 2 7 6 5 4 4 3 4 5 4 6 2 2 1 3 4 5 7
4 5 6 6 3 0 1 2 2 3 4 7 10 10 8 7 5 4 6 5 4 2 2 4 3 2 1 1 2 3 4 3 2 1 3 1 1 6 5 11 6 7 6 2 2 3 4 1 1 4 2 4 2 2 8 8 10 5 5 3 7 9 6 6 4 7 6 1 0 0 0 3 2 1 4 4 6 4 3 6 5 0 3 4 6 8 9 9
4 5 5 3 1 0 2 6 6 8 8 9 7 10 7 5 3 8 4 8 4 4 3 3 1 2 3 3 4 3 3 2 1 3 2 2 1 5 4 8 10 6 8 5 4 3 2 2 1 2 4 3 4 4 3 4 6 5 6 5 6 5 5 2 4 1 5 5 6 6 2 3 2 3 3 1 1 3 5 3 4 3 3 5 7 8 9 11
5 3 5 5 2 1 1 1 3 6 9 12 12 14 11 2 4 7 8 7 2 4 3 3 2 2 3 3 4 5 5 4 3 3 2 1 2 2 5 4 9 4 6 3 7 4 2 2 3 1 6 9 10 10 10 10 12 3 2 6 5 9 10 5 2 1 3 1 4 2 3 8 8 4 3 4 6 4 2 3 2 4 5 7 7 9 11 11
3 5 4 4 3 3 0 1 1 3 8 11 13 5 5 9 9 8 7 6 4 4 4 3 1 3 2 3 3 2 1 3 5 2 1 1 1 2 3 5 3 3 7 10 6 6 2 1 2 3 2 5 3 3 1 6 3 4 5 10 6 5 10 7 5 4 4 3 4 6 6 1 4 2 2 5 4 4 4 3 0 2 3 6 8 9 10 10
1 2 5 7 6 2 4 4 0 3 7 7 5 5 7 9 9 6 1 5 1 4 4 4 2 2 2 3 1 4 3 5 5 5 4 3 2 2 5 7 2 6 13 10 5 2 0 2 4 4 5 6 2 2 9 11 8 5 8 8 7 7 6 7 7 6 4 9 1 4 3 2 6 5 3 4 3 3 2 1 4 4 5 6 7 8 9 10
3 1 1 1 3 6 10 2 8 10 11 9 4 3 8 12 9 8 8 2 8 6 3 2 2 3 7 7 9 5 4 5 1 2 4 2 5 5 3 3 3 7 12 3 5 2 1 1 3 2 2 2 3 4 4 9 7 9 10 8 8 8 8 9 7 5 7 4 7 2 4 2 4 3 3 3 2 1 1 1 2 6 8 8 9 11 11 11
1 2 3 4 4 4 5 12 14 12 13 10 4 4 9 11 12 6 2 8 7 5 2 4 4 8 8 5 3 4 5 5 3 0 3 5 8 5 3 5 5 3 6 1 1 1 1 3 3 0 1 1 5 2 2 10 4 5 4 9 12 11 11 11 6 4 9 5 7 4 8 7 4 2 3 3 1 1 2 4 5 8 9 10 11 11 11 12
5 5 4 3 5 9 9 7 6 8 8 8 6 5 7 10 12 15 7 2 7 6 4 5 9 10 9 9 6 3 2 2 5 4 2 5 10 3 3 2 1 4 3 2 1 0 3 5 4 2 3 5 6 5 5 12 10 6 5 8 5 2 4 2 3 1 2 2 1 1 1 5 5 4 3 3 2 4 6 6 6 7 9 11 11 11 11 12
3 3 5 8 10 4 4 4 6 7 6 4 5 7 11 8 11 13 13 6 8 6 6 11 12 12 9 9 9 8 7 7 6 7 8 6 6 2 4 1 3 2 5 1 1 0 1 4 2 2 2 4 5 5 9 10 13 10 8 10 9 3 4 1 3 3 4 4 2 3 1 4 4 2 2 1 4 5 6 6 6 6 8 10 11 10 11 10
3 4 5 4 5 4 6 5 7 5 3 2 4 10 7 14 15 12 10 3 3 7 11 11 13 9 8 9 10 7 5 4 7 8 7 7 7 9 6 6 4 1 1 1 1 2 4 1 1 1 3 2 2 1 3 10 10 7 7 5 3 1 0 1 1 4 1 4 6 4 8 4 3 4 2 2 5 6 5 5 7 7 8 11 12 12 11 10
Wind_Direction
344 344 341 341 342 341 343 341 339 338 339 338 333 331 329 328 320 319 318 318 322 321 315 318 319 318 320 320 324 331 332 319 313 301 291 260 249 254 264 263 265 256 253 130 210 148 295 304 248 174 95 119 230 145 228 170 142 115 200 180 234 188 195 182 194 184 189 172 280 49 326 176 286 338 288 348 3 19 331 32 325 1 13 355 96 127 128 135
344 344 342 341 340 341 340 339 337 338 337 336 333 331 330 328 327 324 321 320 321 321 323 320 321 320 321 322 321 336 326 316 299 287 257 264 278 270 275 311 274 241 207 153 170 174 220 286 217 141 128 173 202 201 147 239 151 186 172 177 227 169 220 158 170 210 203 239 212 275 272 217 258 75 286 2 318 344 329 335 38 17 24 56 96 125 134 138
345 342 341 340 339 339 340 339 338 337 335 336 335 332 330 327 326 323 322 321 320 321 322 322 320 320 325 326 324 335 329 310 301 277 272 275 252 305 340 343 320 214 199 175 186 176 184 208 172 138 181 151 200 195 186 229 169 221 139 216 222 198 213 207 177 209 212 140 317 1 304 348 249 284 256 345 299 332 272 244 331 177 115 114 118 135 137 141
342 340 339 339 339 336 338 339 337 336 336 335 330 332 329 330 326 325 325 323 320 320 323 323 321 327 329 331 334 330 328 299 281 247 220 26 15 8 358 351 358 202 183 196 172 168 201 231 92 151 142 189 223 171 174 221 159 226 209 223 199 194 169 230 224 229 246 167 228 279 296 311 295 237 11 287 353 303 268 236 194 197 161 151 151 148 151 150
341 339 339 338 337 336 337 335 335 334 333 333 330 330 328 328 329 328 326 324 322 321 323 326 324 325 327 333 339 344 320 311 278 194 146 10 10 10 1 360 17 115 172 131 137 227 158 149 110 79 132 195 200 183 229 214 197 137 229 174 174 165 225 226 217 237 230 236 40 272 319 268 304 317 188 147 215 264 247 268 203 158 157 163 163 162 157 162
340 340 340 338 338 336 337 334 334 333 332 330 330 328 327 328 326 325 326 325 326 322 321 320 323 323 328 340 331 331 327 242 333 273 344 357 13 8 3 4 12 125 134 244 145 186 169 291 119 159 188 150 202 198 236 198 166 237 166 214 176 188 194 244 212 233 218 257 255 275 241 290 0 287 195 175 224 243 209 190 191 181 174 172 159 157 164 169
338 338 337 337 334 336 336 334 333 332 333 329 327 328 327 327 323 323 322 322 318 319 315 317 319 323 330 332 311 215 234 269 298 284 341 355 13 4 359 6 12 18 101 107 238 199 181 165 161 204 127 213 267 210 245 196 217 229 236 139 214 196 231 244 222 225 156 163 230 214 356 297 324 307 163 261 250 245 263 255 242 179 155 162 165 177 173 176
336 335 335 334 334 333 335 334 331 331 330 327 327 326 323 323 323 321 320 315 316 312 318 314 317 317 331 344 346 297 269 249 270 283 336 3 7 357 356 18 17 7 23 346 178 183 121 171 174 146 205 176 215 176 199 230 227 222 234 229 285 194 236 246 251 260 263 239 236 282 278 257 237 251 318 275 277 279 273 246 172 146 151 163 168 174 176 173
336 333 334 333 332 332 331 330 329 327 328 324 324 324 321 321 319 318 315 315 311 312 311 313 309 311 328 305 288 308 252 256 262 298 13 354 350 358 10 6 3 12 334 347 340 214 149 232 185 191 217 211 211 182 193 178 250 211 230 206 236 246 244 228 251 239 240 268 210 267 258 265 255 275 268 259 274 296 300 109 134 142 154 167 174 181 179 172
334 333 333 332 331 331 330 329 327 326 323 323 322 320 320 319 319 316 312 309 308 305 305 308 308 307 314 208 268 267 270 289 44 2 341 340 340 342 348 5 359 351 356 328 334 197 191 215 185 219 75 280 177 216 168 192 225 183 177 219 214 239 252 260 242 244 211 212 182 242 280 275 257 145 277 300 227 126 98 122 148 155 164 167 170 180 183 169
335 333 333 334 333 332 331 328 327 324 323 320 318 318 316 316 313 310 307 303 302 299 298 296 302 300 280 266 239 247 265 316 356 332 324 324 325 330 327 328 345 329 319 304 275 241 253 241 242 304 201 221 32 255 197 226 254 186 178 184 228 240 247 250 252 244 155 281 206 212 260 262 263 148 243 268 215 153 121 148 155 161 165 169 169 174 169 171
334 333 333 332 333 331 329 328 325 324 322 318 317 316 315 313 310 304 299 296 295 295 293 292 289 289 272 255 239 234 42 329 303 301 306 313 311 310 304 291 283 265 285 286 287 274 261 271 313 268 211 142 235 299 258 222 189 218 123 264 280 262 250 226 231 235 163 251 165 175 293 275 214 202 227 246 150 163 144 159 172 170 169 168 168 166 174 179
333 332 332 331 330 329 327 325 324 323 320 318 318 318 315 312 305 298 294 292 295 289 284 277 275 232 280 268 240 253 275 291 290 298 297 290 291 281 269 268 253 230 223 236 257 256 252 268 351 293 266 311 237 160 290 140 198 174 235 212 296 284 268 237 191 207 174 231 166 134 266 249 247 217 241 250 141 130 138 163 177 178 170 170 170 172 172 172
329 330 330 328 328 327 325 324 324 323 320 319 321 320 318 309 302 296 292 293 292 285 277 272 240 209 234 250 284 259 297 261 273 285 279 305 298 290 287 258 240 226 209 224 240 256 262 231 216 240 286 219 247 315 6 356 107 187 177 127 219 203 256 237 172 162 181 200 173 159 243 260 258 288 251 264 173 154 168 174 179 178 176 171 174 173 176 169
330 329 328 327 327 326 326 325 324 324 320 319 321 320 315 308 302 295 298 299 288 277 262 249 133 131 247 267 272 267 248 252 259 256 267 275 267 306 282 293 246 219 217 218 231 222 227 195 157 201 255 188 252 331 318 21 1 189 134 223 192 203 286 294 247 161 186 244 174 149 248 251 254 239 269 219 178 175 174 172 180 177 182 176 173 171 170 169
333 332 330 330 329 328 327 327 325 323 320 321 321 319 312 307 299 298 305 297 286 246 79 85 186 199 284 283 237 346 329 262 259 239 248 206 221 223 262 275 315 279 193 235 221 248 247 189 192 196 232 101 183 153 4 23 269 267 206 92 197 183 237 337 232 191 184 167 212 184 225 310 295 228 224 189 174 184 185 172 182 183 181 173 173 170 168 150
333 332 331 330 330 330 328 328 325 323 324 323 323 316 311 302 295 309 317 347 15 125 117 150 145 174 245 197 345 301 255 229 237 298 239 190 185 208 289 314 252 252 234 259 224 206 213 141 219 171 225 178 156 134 126 241 239 221 137 181 202 182 152 215 299 262 200 187 218 226 216 230 270 290 258 174 182 176 190 174 182 182 180 176 169 167 157 163
333 332 331 330 330 328 328 327 323 325 326 325 325 314 308 298 303 323 17 29 65 82 105 322 77 239 259 256 278 252 193 237 168 235 275 236 187 218 203 238 247 245 196 177 183 162 192 188 164 209 151 200 160 179 184 213 203 160 143 153 239 95 179 191 178 245 156 223 208 196 220 238 256 272 280 182 191 178 190 185 177 181 180 177 177 168 164 173
332 332 330 329 327 327 325 323 323 325 326 325 317 314 297 302 345 107 99 203 52 2 38 223 193 181 240 184 232 274 275 234 271 274 281 331 210 200 167 197 225 160 201 164 243 167 184 225 135 174 199 193 200 192 186 173 137 165 153 177 158 155 199 196 206 250 173 193 221 190 193 224 251 257 267 270 170 178 201 150 151 166 175 182 182 175 170 184
332 330 328 328 327 325 326 322 325 326 326 325 333 325 347 10 7 329 293 38 231 225 250 262 205 245 281 281 275 266 275 210 283 196 254 282 275 122 150 149 180 221 196 187 148 187 126 193 201 207 207 192 186 193 192 200 129 146 139 155 203 156 268 271 276 250 219 192 215 201 183 208 237 237 238 246 133 167 131 153 169 174 175 179 183 181 180 188
330 330 327 327 328 328 324 324 325 325 323 326 331 360 31 358 333 321 307 259 251 248 249 247 234 235 241 267 274 288 302 286 210 259 228 242 151 117 255 147 178 190 217 157 134 209 154 212 226 209 164 171 182 162 180 259 70 158 151 162 205 186 209 228 189 246 267 171 295 206 179 220 231 240 241 243 124 181 170 170 176 179 179 180 171 178 182 187
330 328 328 327 328 327 324 323 323 321 320 343 312 307 259 220 211 300 319 300 207 225 234 242 239 251 257 258 261 266 273 281 269 242 253 276 253 171 234 146 186 199 151 143 143 155 202 218 213 150 158 137 154 165 174 209 181 66 155 158 151 230 249 289 262 253 237 120 258 136 178 227 238 240 256 243 196 219 191 179 185 177 181 172 166 167 178 174
330 329 328 327 328 324 323 321 324 319 329 52 336 298 250 253 74 125 308 271 286 201 232 241 254 248 259 257 256 215 237 236 264 253 228 172 213 207 189 167 190 183 169 177 184 179 210 233 151 162 143 134 146 163 154 191 228 175 85 159 191 218 158 226 258 320 320 168 254 191 185 267 288 293 263 247 206 230 199 198 194 180 173 172 174 177 182 181
330 329 327 326 328 324 322 323 321 345 49 152 278 255 275 294 273 313 329 291 301 301 202 232 224 243 240 238 264 163 201 242 187 272 209 176 182 184 192 179 161 188 192 193 196 196 193 328 154 157 170 166 167 172 170 173 212 198 160 125 149 159 194 145 228 303 334 315 57 135 345 299 286 267 292 299 266 269 252 165 199 215 190 183 182 182 184 184
330 329 328 327 324 325 325 320 323 63 238 284 259 264 298 330 345 134 8 285 238 268 177 294 187 220 243 208 122 165 208 275 217 232 196 170 179 159 211 163 156 209 201 194 202 218 228 270 161 163 175 182 162 178 188 176 203 212 222 167 180 166 176 271 4 50 9 266 324 161 308 269 281 269 232 237 24 223 244 173 200 190 173 167 177 190 200 206
329 329 327 326 326 328 324 302 194 288 319 287 267 297 324 341 355 246 128 309 293 300 324 292 106 268 351 245 153 237 105 253 214 212 201 190 191 163 159 199 180 198 185 174 199 228 204 260 162 178 171 184 190 189 191 165 193 184 228 164 194 199 126 54 6 64 117 200 267 65 194 265 326 297 248 222 190 222 300 231 203 180 174 181 189 194 194 195
330 329 327 327 329 329 324 312 48 337 339 316 234 323 323 332 321 33 20 245 297 267 246 50 240 195 234 199 184 280 253 271 134 177 201 217 182 234 160 194 150 158 146 142 156 227 155 211 204 215 178 184 192 199 195 176 163 218 169 162 166 173 207 146 92 119 217 264 292 59 152 170 282 277 258 294 198 265 281 252 220 200 187 191 197 197 196 196
330 330 329 328 327 328 271 296 314 299 243 266 320 323 328 332 347 38 82 324 300 101 276 341 269 44 226 219 170 214 246 13 353 228 196 197 165 57 128 194 168 169 169 166 194 11 158 190 200 199 200 191 202 183 138 170 164 218 187 151 178 168 171 117 101 99 201 61 282 319 324 174 255 265 308 304 240 297 256 230 219 199 199 201 201 197 197 198
331 331 330 328 328 319 338 155 297 259 239 306 313 317 339 358 89 98 104 242 95 259 79 134 262 183 246 244 248 227 252 258 237 32 166 141 212 138 117 231 167 173 196 195 182 263 155 185 197 181 194 205 155 140 159 172 163 252 169 157 158 153 120 121 70 3 326 12 253 233 294 211 284 274 320 337 197 248 251 237 219 202 200 203 203 202 198 199
331 331 329 328 328 347 35 117 200 233 254 298 308 311 1 55 33 28 9 265 48 292 147 237 86 290 173 286 268 185 194 208 202 68 155 166 212 329 242 139 137 154 198 209 224 207 186 204 170 178 199 182 142 161 156 169 194 133 135 112 111 119 106 44 69 121 35 250 252 181 237 140 283 257 208 169 212 198 230 279 273 232 224 220 215 201 194 195
332 330 327 329 301 332 245 263 263 258 239 261 296 352 53 31 121 105 247 280 125 247 284 217 294 220 298 310 318 125 169 174 229 145 146 169 149 221 162 73 42 68 84 160 214 247 270 297 176 204 144 169 147 160 175 170 171 138 171 125 111 50 53 56 348 45 177 258 268 203 188 171 212 287 280 233 261 207 189 216 214 206 207 207 204 202 198 196
331 328 325 328 234 169 218 249 241 269 29 306 55 53 67 344 26 131 248 31 300 299 319 317 320 333 320 329 301 207 139 111 263 148 161 167 161 173 199 164 154 109 167 176 220 222 268 251 275 129 168 164 169 149 189 172 178 174 128 132 144 198 119 245 74 214 217 200 329 220 151 56 258 231 249 257 232 240 217 217 211 205 214 209 205 205 197 194
330 327 323 313 307 204 245 257 256 294 347 51 68 61 53 51 303 233 272 2 256 47 313 228 289 317 312 315 18 299 349 187 177 201 156 135 150 218 257 175 182 129 177 150 152 122 281 281 196 256 167 184 165 168 159 172 192 174 173 166 157 142 171 206 203 59 332 281 258 149 321 285 245 285 236 241 252 236 229 228 219 203 205 203 206 197 185 189
327 327 319 287 259 217 244 252 238 162 53 43 76 41 86 292 259 226 284 246 265 279 294 313 318 316 356 37 345 309 121 254 133 176 139 141 156 181 212 253 161 9 75 144 149 176 129 212 253 177 212 168 182 189 178 164 168 194 89 161 174 152 163 191 181 197 203 194 220 283 118 233 130 234 218 219 257 303 256 230 228 217 203 188 153 169 187 192
326 319 300 299 319 260 253 267 219 179 85 62 48 102 125 251 263 290 293 301 286 298 285 316 300 314 336 6 350 286 162 133 198 137 131 148 177 176 178 224 225 124 248 122 250 103 213 214 245 183 217 169 184 172 155 131 166 195 164 79 110 210 139 129 198 136 195 133 31 185 196 188 180 254 283 278 280 299 252 191 155 176 163 152 165 181 191 195
328 322 318 267 331 278 322 110 130 84 84 57 43 248 220 232 279 181 253 236 294 318 313 311 279 321 323 317 238 327 31 48 169 149 115 153 144 168 195 157 190 176 182 160 191 159 77 270 273 175 205 177 173 154 185 159 176 184 139 199 200 149 98 93 53 66 105 78 231 167 302 284 301 307 288 346 45 6 43 118 152 163 168 170 193 194 189 188
341 334 2 320 323 255 187 139 144 75 60 93 105 279 231 270 235 271 283 297 306 312 304 330 4 14 339 335 350 11 320 20 322 160 136 126 148 193 172 238 170 164 204 133 210 197 151 232 289 161 191 242 180 166 180 187 144 115 201 206 105 99 108 129 172 352 75 148 243 104 183 251 71 258 320 2 52 10 14 112 156 164 169 194 204 195 186 179
320 311 274 279 255 259 146 132 71 48 75 297 248 267 182 253 214 233 267 294 305 275 282 327 291 41 336 334 338 358 342 79 306 106 137 188 199 192 165 172 206 192 202 197 140 248 138 219 254 186 184 178 172 159 183 204 174 180 177 199 151 212 221 301 87 117 107 170 255 335 287 262 179 241 327 264 231 230 195 168 157 190 199 210 205 190 165 153
279 329 344 256 316 184 125 114 66 74 313 295 260 311 209 250 251 251 262 277 276 270 267 255 248 313 330 330 321 311 317 332 324 55 121 211 163 194 181 157 234 224 167 152 194 250 354 156 309 196 177 164 159 175 192 189 222 108 132 178 183 99 134 124 197 174 113 212 82 276 59 217 215 223 203 219 209 199 169 186 209 208 209 205 200 184 173 170
340 2 307 267 290 340 187 156 106 216 303 282 299 254 291 297 291 279 261 267 305 277 251 280 174 288 318 265 285 317 257 248 336 293 117 207 171 229 179 171 218 191 159 170 196 305 322 323 168 245 186 137 193 196 195 176 166 166 171 182 167 216 212 111 42 128 187 166 171 167 236 278 258 216 185 217 198 190 181 201 215 218 215 209 200 183 171 157
311 144 269 276 308 303 358 316 290 248 254 258 240 263 291 259 306 296 300 285 252 238 238 274 313 270 323 327 336 357 307 299 20 340 170 161 178 134 230 183 194 159 134 133 212 215 291 4 219 316 149 196 190 151 140 164 171 175 146 185 171 131 128 154 232 17 90 89 212 118 234 271 268 178 206 219 223 209 211 198 206 209 203 199 191 177 155 151
350 7 279 311 289 1 78 343 242 200 264 287 311 313 298 302 299 290 314 323 264 259 200 249 253 258 263 254 262 300 304 298 248 40 308 148 263 162 251 194 187 148 134 176 194 228 147 163 86 301 221 182 162 154 162 162 160 169 154 192 157 145 113 112 135 223 50 50 128 166 118 271 236 191 216 256 236 215 234 252 257 276 269 101 105 123 132 142
353 263 267 314 312 63 343 239 242 301 289 285 301 286 262 278 255 279 310 302 320 294 224 221 245 257 274 187 279 269 310 286 276 183 266 253 248 217 230 183 162 137 115 217 164 226 155 265 349 293 290 285 307 298 154 145 147 139 211 155 153 186 168 167 164 178 172 207 15 328 171 252 290 231 219 231 270 263 233 219 235 99 124 140 134 131 131 133
302 292 309 294 324 94 27 20 333 333 313 306 310 269 255 250 292 311 297 301 309 321 305 294 261 146 266 214 249 262 324 359 284 173 304 266 279 250 184 180 170 178 165 215 151 199 120 274 133 330 114 95 53 49 118 152 153 188 192 189 185 150 162 149 112 61 148 219 166 114 206 286 274 326 299 340 224 264 269 263 182 144 138 139 132 130 134 137
287 247 236 289 7 42 92 87 320 304 321 318 322 322 337 303 202 259 289 292 291 270 303 287 256 166 244 248 274 278 280 209 300 261 211 213 236 279 262 163 202 200 192 176 194 153 174 196 131 108 143 154 161 171 181 184 187 163 139 160 177 162 185 135 223 80 153 235 116 135 251 253 273 326 338 347 340 308 267 248 205 159 152 146 133 140 139 145
6 354 316 314 354 16 42 185 167 296 315 330 332 312 305 320 327 325 293 268 232 271 256 271 303 130 262 274 279 274 291 213 195 290 352 289 279 293 178 150 130 233 200 205 187 137 193 172 155 161 147 178 205 190 232 119 79 149 190 168 184 195 181 164 109 107 198 196 180 225 182 285 318 316 324 313 323 296 329 14 39 91 110 132 139 143 148 148
279 50 326 336 328 161 10 311 226 327 313 315 300 319 316 331 310 305 57 309 106 303 296 222 248 274 280 239 311 278 244 293 250 246 274 286 251 257 288 276 271 227 211 209 183 125 31 332 254 197 212 223 190 218 173 151 166 164 147 187 176 167 166 145 158 202 172 100 264 263 192 154 263 280 272 275 294 317 321 85 103 92 120 136 138 135 133 142
25 357 289 65 297 309 339 338 343 318 304 316 270 273 304 322 335 328 317 244 321 291 270 297 228 231 334 354 328 312 323 304 277 309 324 324 322 310 2 113 163 201 201 211 156 132 141 206 262 133 255 215 243 238 207 148 153 158 164 159 173 173 152 167 198 197 145 183 202 238 157 170 260 237 269 266 204 230 228 193 163 143 128 130 137 142 147 147
338 311 275 7 316 296 284 286 304 306 308 312 280 297 318 327 321 327 290 308 313 313 333 301 323 339 338 311 303 291 304 334 18 326 323 336 338 318 61 94 35 344 189 71 83 141 330 258 274 157 272 327 356 66 161 119 69 73 130 168 165 155 180 183 192 187 178 203 213 169 166 218 232 243 232 256 242 229 110 103 111 123 139 145 147 151 154 158
21 340 323 323 248 288 289 291 293 310 313 314 330 300 322 317 318 325 324 294 314 300 304 307 309 317 316 308 287 259 249 284 287 305 316 2 324 345 37 52 242 355 41 127 138 296 168 280 284 16 25 4 11 84 109 119 111 89 57 46 45 97 96 105 108 192 89 42 16 106 126 271 264 230 247 293 10 118 116 109 127 131 142 148 152 159 163 165
310 276 295 306 313 283 287 309 320 318 306 317 343 319 328 322 320 324 299 251 235 278 318 305 302 305 308 298 290 273 263 248 252 224 245 276 279 350 23 289 34 27 351 43 78 17 194 266 58 44 51 352 7 75 111 96 95 88 42 18 18 53 119 148 130 203 160 177 84 86 346 273 271 258 277 16 125 116 115 114 119 142 152 149 154 161 163 165
305 269 284 295 284 306 318 305 304 313 311 5 342 317 323 306 306 316 315 229 252 267 273 286 295 293 289 290 287 267 248 211 226 233 237 237 235 271 275 274 310 242 294 189 303 165 201 167 307 46 69 336 334 359 81 106 85 41 354 340 318 273 211 70 13 34 27 147 117 130 225 225 284 312 310 58 97 99 96 122 132 137 159 157 158 162 163 164